AirNav   Air Wisconsin Up To $57,000 Bonus
 
 775 users online  

1XS8 Pinon Ranch Airport
Brackettville, Texas, USA

GOING TO BRACKETTVILLE?


FAA INFORMATION EFFECTIVE 09 SEPTEMBER 2021

Location

FAA Identifier: 1XS8
Lat/Long: 29-38-02.8900N 100-22-32.9700W
29-38.048167N 100-22.549500W
29.6341361,-100.3758250
(estimated)
Elevation: 1644 ft. / 501.1 m (surveyed)
Variation: 07E (1995)
From city: 19 miles S of BRACKETTVILLE, TX
Time zone: UTC -5 (UTC -6 during Standard Time)
Zip code: 78828

Airport Operations

Airport use: Private use. Permission required prior to landing
Activation date: 02/1998
Control tower: no
ARTCC: HOUSTON CENTER
FSS: SAN ANGELO FLIGHT SERVICE STATION
Attendance: UNATNDD
Wind indicator: yes
Segmented circle: no

Nearby radio navigation aids

VOR radial/distance  VOR name  Freq  Var
RSGr180/23.2ROCKSPRINGS VORTAC114.5510E
DLFr045/26.4LAUGHLIN VORTAC114.4007E

 
NDB name  Hdg/Dist  Freq  Var  ID
LA FONDA RANCH018/28.626909EBRX -... .-. -..-
SPOFFORD357/29.535608EPFO .--. ..-. ---

Airport Services

Runway Information

Runway 16/34

Dimensions: 4500 x 50 ft. / 1372 x 15 m
Surface: asphalt
RUNWAY 16  RUNWAY 34
Latitude: 29-38.414000N29-37.682333N
Longitude: 100-22.623500W100-22.475333W
Elevation: 1644.0 ft.1630.0 ft.
Traffic pattern: leftleft
Displaced threshold: 510 ft.no

Airport Ownership and Management from official FAA records

Ownership: Privately-owned
Owner: ROSEWOOD RANCHES INC
100 CRESCENT CT SUITE 1700
DALLAS, TX 75201
Phone 214-871-8400
Manager: HARRY WHITE
PO BOX 697
BRACKETVILLE, TX 78832
Phone 210-563-2279

Additional Remarks

FOR CD CTC LAUGHLIN APCH AT 830-298-4350, WHEN APCH CLSD CTC HOUSTON ARTCC AT 281-230-5622.

Instrument Procedures

There are no published instrument procedures at 1XS8.

Some nearby airports with instrument procedures:

KECU - Edwards County Airport (22 nm NE)
KDLF - Laughlin AFB Airport (27 nm SW)
KDRT - Del Rio International Airport (33 nm SW)
KUVA - Garner Field Airport (42 nm SE)
5T9 - Maverick County Memorial International Airport (47 nm S)
 
Loc | Ops | Rwys | IFR | FBO | Links
Com | Nav | Svcs | Stats | Notes
Area around 1XS8 (Pinon Ranch Airport)
 
Road maps at: MapQuest Bing Google
 
Aerial photo
No photo
 
Sectional chart

 
Airport distance calculator
Flying to Pinon Ranch Airport? Find the distance to fly.

From to 1XS8

Sunrise and sunset
Times for 24-Sep-2021
 Local
(UTC-5)
 Zulu
(UTC)
Morning civil twilight07:0812:08
Sunrise07:3212:32
Sunset19:3500:35
Evening civil twilight19:5900:59

Current date and time
Zulu (UTC)  25-Sep-2021 03:27:36
Local (UTC-5)  24-Sep-2021 22:27:36
 
METAR
KECU 
22nm NE 
250315Z AUTO 15006KT 10SM CLR 20/07 A3013 RMK AO2
KDLF 
26nm SW 
250256Z AUTO 11006KT 10SM CLR 23/08 A3000 RMK AO2 SLP150 T02260079 52009 $
KT70 
31nm S 
250258Z AUTO 10006KT 10SM CLR 22/09 A2995 RMK AO2 SLP132 T02220086 52008 $
KDRT 
32nm SW 
250253Z AUTO 11009KT 10SM CLR 28/08 A2999 RMK AO2 SLP145 T02780078 53009
KUVA 
42nm SE 
250315Z AUTO 08005KT 10SM CLR 21/08 A3005 RMK AO2 T02080081
TAF
KDLF 
26nm SW 
242050Z 2420/2601 14012G20KT 9999 SKC QNH2996INS BECMG 2500/2501 13008KT 9999 SKC QNH2998INS BECMG 2511/2512 11006KT 9999 FEW030 QNH3009INS BECMG 2516/2517 14010G15KT 9999 FEW250 QNH3001INS TX32/2421Z TN13/2512Z LAST NO AMDS AFT 2421 NEXT 2511
NOTAMs
Click for the latest NOTAMs
NOTAMs are issued by the DoD/FAA and will open in a separate window not controlled by AirNav.

 

 
 

Would you like to see your business listed on this page?

 If your business provides an interesting product or service to pilots, flight crews, aircraft, or users of the Pinon Ranch Airport, you should consider listing it here.  To start the listing process, click on the button below
 
Add a business
 

Other Pages about Pinon Ranch Airport

Update a link
 
Copyright © AirNav, LLC. All rights reserved. Privacy Policy  Contact